SAS1OS ESGG-EKCH

Flight info

Callsign SAS1OS
Flight time 0h 31m
Altitude 17000
Route TOPLA L996 ERNOV
Aircraft A359/H-SDE2E3GHIJ3J4J5LM1ORWXY/LB1D1

Departure

Time 2026-04-23 18:35
Airport Göteborg Landvetter Airport (ESGG)

Arrival

Time 2026-04-23 19:07
Airport Copenhagen Kastrup Airport (EKCH)
Time Latitude Longitude Altitude Speed Heading
2026-04-23 18:16 57.66895 12.29388 534 ft 0 kts 117°
2026-04-23 18:24 57.66899 12.29374 538 ft 1 kts 117°
2026-04-23 18:24 57.66901 12.29368 539 ft 3 kts 112°
2026-04-23 18:25 57.66900 12.29298 544 ft 3 kts 47°
2026-04-23 18:25 57.66894 12.29284 544 ft 0 kts 27°
2026-04-23 18:27 57.66926 12.29312 540 ft 13 kts 20°
2026-04-23 18:28 57.66984 12.29287 534 ft 6 kts 308°
2026-04-23 18:28 57.67010 12.29204 535 ft 9 kts 300°
2026-04-23 18:28 57.67048 12.29098 535 ft 10 kts 320°
2026-04-23 18:28 57.67119 12.29089 535 ft 11 kts 17°
2026-04-23 18:29 57.67194 12.29143 536 ft 12 kts 25°
2026-04-23 18:29 57.67275 12.29224 540 ft 14 kts 28°
2026-04-23 18:29 57.67371 12.29318 538 ft 17 kts 27°
2026-04-23 18:29 57.67419 12.29363 538 ft 0 kts 25°
2026-04-23 18:30 57.67431 12.29374 539 ft 9 kts 25°
2026-04-23 18:30 57.67490 12.29426 539 ft 0 kts 25°
2026-04-23 18:32 57.67512 12.29444 539 ft 7 kts 24°
2026-04-23 18:32 57.67568 12.29446 540 ft 5 kts 324°
2026-04-23 18:32 57.67577 12.29422 540 ft 0 kts 301°
2026-04-23 18:33 57.67578 12.29418 540 ft 2 kts 299°
2026-04-23 18:33 57.67586 12.29335 539 ft 11 kts 274°
2026-04-23 18:34 57.67560 12.29158 538 ft 16 kts 234°
2026-04-23 18:34 57.67509 12.29094 537 ft 0 kts 207°
2026-04-23 18:34 57.67498 12.29083 537 ft 1 kts 207°
2026-04-23 18:35 57.67425 12.29014 537 ft 43 kts 206°
2026-04-23 18:35 57.66910 12.28543 533 ft 119 kts 206°
2026-04-23 18:35 57.65970 12.27693 562 ft 177 kts 207°
2026-04-23 18:35 57.64814 12.26687 1215 ft 187 kts 207°
2026-04-23 18:36 57.63626 12.25647 1951 ft 191 kts 207°
2026-04-23 18:36 57.62428 12.24633 2639 ft 187 kts 206°
2026-04-23 18:36 57.61177 12.23598 3017 ft 205 kts 206°
2026-04-23 18:36 57.59758 12.22769 3350 ft 226 kts 188°
2026-04-23 18:37 57.58100 12.22612 3616 ft 251 kts 179°
2026-04-23 18:37 57.56276 12.22616 3965 ft 272 kts 180°
2026-04-23 18:37 57.54345 12.22796 4521 ft 282 kts 171°
2026-04-23 18:37 57.52399 12.23439 5237 ft 285 kts 168°
2026-04-23 18:38 57.50432 12.24053 5957 ft 289 kts 171°
2026-04-23 18:38 57.48413 12.24486 6661 ft 293 kts 174°
2026-04-23 18:38 57.46377 12.24980 7301 ft 298 kts 171°
2026-04-23 18:38 57.44312 12.25580 7944 ft 302 kts 171°
2026-04-23 18:39 57.42243 12.26174 8590 ft 306 kts 171°
2026-04-23 18:39 57.40116 12.26769 9241 ft 311 kts 172°
2026-04-23 18:39 57.37962 12.27360 9905 ft 315 kts 173°
2026-04-23 18:39 57.35770 12.27956 10415 ft 324 kts 173°
2026-04-23 18:40 57.33477 12.28573 10680 ft 340 kts 173°
2026-04-23 18:40 57.31085 12.29216 10934 ft 355 kts 173°
2026-04-23 18:40 57.28591 12.29885 11186 ft 369 kts 173°
2026-04-23 18:40 57.26006 12.30577 11507 ft 379 kts 172°
2026-04-23 18:41 57.23377 12.31280 11966 ft 385 kts 172°
2026-04-23 18:41 57.20711 12.31993 12447 ft 388 kts 173°
2026-04-23 18:41 57.18020 12.32710 12949 ft 392 kts 173°
2026-04-23 18:41 57.15308 12.33432 13418 ft 396 kts 172°
2026-04-23 18:42 57.12605 12.34152 13897 ft 399 kts 172°
2026-04-23 18:42 57.09842 12.34869 14323 ft 402 kts 173°
2026-04-23 18:42 57.07060 12.35561 14770 ft 404 kts 173°
2026-04-23 18:42 57.04261 12.36244 15209 ft 407 kts 173°
2026-04-23 18:43 57.01444 12.36928 15677 ft 409 kts 173°
2026-04-23 18:43 56.98613 12.37619 16141 ft 411 kts 173°
2026-04-23 18:43 56.95772 12.38315 16585 ft 414 kts 173°
2026-04-23 18:43 56.92908 12.39020 16978 ft 416 kts 173°
2026-04-23 18:44 56.90015 12.39731 17116 ft 425 kts 173°
2026-04-23 18:44 56.87050 12.40460 17124 ft 435 kts 173°
2026-04-23 18:44 56.84035 12.41201 17112 ft 438 kts 173°
2026-04-23 18:44 56.81044 12.41936 17108 ft 439 kts 173°
2026-04-23 18:45 56.78007 12.42682 17103 ft 439 kts 173°
2026-04-23 18:45 56.74976 12.43424 17093 ft 439 kts 173°
2026-04-23 18:45 56.71946 12.44165 17098 ft 438 kts 173°
2026-04-23 18:45 56.68926 12.44902 16865 ft 433 kts 173°
2026-04-23 18:46 56.65948 12.45627 16119 ft 432 kts 173°
2026-04-23 18:46 56.62963 12.46352 15416 ft 431 kts 173°
2026-04-23 18:46 56.60039 12.47061 14809 ft 427 kts 173°
2026-04-23 18:46 56.57106 12.47771 14201 ft 424 kts 173°
2026-04-23 18:47 56.54191 12.48476 13539 ft 420 kts 173°
2026-04-23 18:47 56.51302 12.49175 12883 ft 416 kts 173°
2026-04-23 18:47 56.48467 12.49860 12523 ft 404 kts 173°
2026-04-23 18:47 56.45728 12.50522 12268 ft 390 kts 173°
2026-04-23 18:48 56.43080 12.51161 12024 ft 377 kts 173°
2026-04-23 18:48 56.40518 12.51781 11781 ft 365 kts 173°
2026-04-23 18:48 56.38044 12.52371 11584 ft 352 kts 173°
2026-04-23 18:48 56.35648 12.52939 11373 ft 341 kts 173°
2026-04-23 18:49 56.33352 12.53483 11113 ft 333 kts 174°
2026-04-23 18:49 56.31066 12.54025 10746 ft 329 kts 174°
2026-04-23 18:49 56.28801 12.54562 10373 ft 327 kts 174°
2026-04-23 18:49 56.26552 12.55094 10153 ft 324 kts 174°
2026-04-23 18:50 56.25066 12.55445 10065 ft 325 kts 174°
2026-04-23 18:50 56.22069 12.56154 9855 ft 324 kts 174°
2026-04-23 18:50 56.19839 12.56681 9579 ft 322 kts 174°
2026-04-23 18:50 56.17625 12.57194 9319 ft 320 kts 175°
2026-04-23 18:51 56.15441 12.57413 9061 ft 317 kts 181°
2026-04-23 18:51 56.13244 12.57445 8808 ft 314 kts 182°
2026-04-23 18:51 56.11059 12.57456 8548 ft 313 kts 182°
2026-04-23 18:51 56.08881 12.57470 8288 ft 311 kts 182°
2026-04-23 18:52 56.06721 12.57486 8048 ft 310 kts 182°
2026-04-23 18:52 56.04568 12.57505 7807 ft 308 kts 182°
2026-04-23 18:52 56.02451 12.57525 7574 ft 306 kts 182°
2026-04-23 18:52 56.00328 12.57546 7324 ft 304 kts 182°
2026-04-23 18:53 55.98217 12.57566 7082 ft 302 kts 182°
2026-04-23 18:53 55.96125 12.57587 6837 ft 300 kts 182°
2026-04-23 18:53 55.94039 12.57607 6589 ft 298 kts 181°
2026-04-23 18:53 55.91968 12.57627 6327 ft 297 kts 181°
2026-04-23 18:54 55.89911 12.57648 6064 ft 295 kts 181°
2026-04-23 18:54 55.87860 12.57624 5796 ft 292 kts 185°
2026-04-23 18:54 55.85920 12.56921 5553 ft 286 kts 201°
2026-04-23 18:54 55.84047 12.55747 5303 ft 283 kts 204°
2026-04-23 18:55 55.82207 12.54531 5043 ft 281 kts 204°
2026-04-23 18:55 55.80374 12.53326 4902 ft 280 kts 204°
2026-04-23 18:55 55.78546 12.52131 4766 ft 279 kts 204°
2026-04-23 18:55 55.76724 12.50946 4648 ft 278 kts 204°
2026-04-23 18:56 55.75523 12.50167 4551 ft 277 kts 204°
2026-04-23 18:56 55.73104 12.48603 4378 ft 276 kts 204°
2026-04-23 18:56 55.71299 12.47439 4240 ft 276 kts 204°
2026-04-23 18:56 55.69494 12.46277 4116 ft 275 kts 204°
2026-04-23 18:57 55.67716 12.45133 3991 ft 275 kts 204°
2026-04-23 18:57 55.65925 12.43983 3853 ft 272 kts 204°
2026-04-23 18:57 55.64148 12.42842 3530 ft 271 kts 203°
2026-04-23 18:57 55.62386 12.41714 3177 ft 267 kts 204°
2026-04-23 18:58 55.60661 12.40559 3013 ft 264 kts 207°
2026-04-23 18:58 55.59128 12.38836 3007 ft 260 kts 223°
2026-04-23 18:58 55.57775 12.36793 2988 ft 248 kts 225°
2026-04-23 18:58 55.56522 12.34854 2987 ft 230 kts 225°
2026-04-23 18:59 55.55360 12.33058 3006 ft 215 kts 225°
2026-04-23 18:59 55.54251 12.31347 3026 ft 211 kts 225°
2026-04-23 18:59 55.53147 12.29643 3027 ft 210 kts 225°
2026-04-23 18:59 55.52045 12.27948 3027 ft 211 kts 225°
2026-04-23 19:00 55.50940 12.26253 3041 ft 209 kts 225°
2026-04-23 19:00 55.49786 12.24688 3030 ft 213 kts 212°
2026-04-23 19:00 55.48317 12.24206 3032 ft 220 kts 176°
2026-04-23 19:00 55.46910 12.25222 3037 ft 222 kts 143°
2026-04-23 19:01 55.45762 12.26978 3030 ft 222 kts 136°
2026-04-23 19:01 55.44656 12.28877 3027 ft 222 kts 135°
2026-04-23 19:01 55.43735 12.31050 3029 ft 225 kts 111°
2026-04-23 19:01 55.43538 12.33728 3034 ft 220 kts 81°
2026-04-23 19:02 55.43747 12.35455 3033 ft 217 kts 65°
2026-04-23 19:02 55.44805 12.38219 3033 ft 191 kts 38°
2026-04-23 19:02 55.45802 12.39709 3026 ft 187 kts 34°
2026-04-23 19:02 55.46792 12.41192 3024 ft 187 kts 36°
2026-04-23 19:03 55.47775 12.42699 2992 ft 187 kts 36°
2026-04-23 19:03 55.48751 12.44212 2811 ft 186 kts 36°
2026-04-23 19:03 55.49715 12.45700 2538 ft 187 kts 36°
2026-04-23 19:03 55.50693 12.47203 2283 ft 186 kts 36°
2026-04-23 19:04 55.51659 12.48690 2025 ft 181 kts 36°
2026-04-23 19:04 55.52593 12.50128 1765 ft 174 kts 37°
2026-04-23 19:04 55.53478 12.51493 1532 ft 163 kts 37°
2026-04-23 19:04 55.54307 12.52768 1308 ft 153 kts 37°
2026-04-23 19:05 55.54824 12.53579 1125 ft 147 kts 37°
2026-04-23 19:05 55.55568 12.54751 919 ft 139 kts 38°
2026-04-23 19:05 55.56283 12.55817 732 ft 131 kts 37°
2026-04-23 19:05 55.56976 12.56842 640 ft 130 kts 40°
2026-04-23 19:06 55.57859 12.58276 381 ft 129 kts 40°
2026-04-23 19:06 55.58314 12.58979 267 ft 128 kts 39°
2026-04-23 19:06 55.58988 12.60007 94 ft 127 kts 40°
2026-04-23 19:06 55.59642 12.61015 35 ft 122 kts 39°
2026-04-23 19:07 55.60223 12.61899 29 ft 92 kts 42°
2026-04-23 19:07 55.60475 12.62300 30 ft 7 kts 41°
2026-04-23 19:07 55.60503 12.62316 26 ft 20 kts 11°
2026-04-23 19:07 55.60651 12.62354 31 ft 21 kts 10°
2026-04-23 19:08 55.60686 12.62366 31 ft 9 kts 11°
2026-04-23 19:08 55.60800 12.62431 29 ft 25 kts 32°
2026-04-23 19:08 55.60969 12.62674 28 ft 35 kts 41°
2026-04-23 19:08 55.61158 12.62967 28 ft 37 kts 41°
2026-04-23 19:09 55.61352 12.63269 27 ft 38 kts 41°
2026-04-23 19:09 55.61554 12.63583 27 ft 39 kts 40°
2026-04-23 19:09 55.61760 12.63895 28 ft 38 kts 41°
2026-04-23 19:09 55.61978 12.64162 26 ft 39 kts 24°
2026-04-23 19:10 55.62218 12.64358 27 ft 38 kts 24°
2026-04-23 19:10 55.62451 12.64370 26 ft 32 kts 315°
2026-04-23 19:10 55.62558 12.64216 28 ft 7 kts 17°
2026-04-23 19:10 55.62583 12.64253 29 ft 2 kts 64°
2026-04-23 19:11 55.62614 12.64370 28 ft 14 kts 66°
2026-04-23 19:11 55.62621 12.64398 28 ft 3 kts 66°
2026-04-23 19:11 55.62624 12.64413 28 ft 0 kts 66°